User: anonymous   Login
Location: Unspecified
(0.0000°N, 0.0000°E)
Time: 00:56:11
(UTC+00:00)
Language:

STARLINK-4162 - Orbit

View from above orbital plane
View from above orbital plane
View from above satellite
View from above satellite

Ground track
Ground track

The orbit is defined by the following mean orbital elements,

1 53288U          26145.43494558 +.00000000 +00000-0 +15663-4 0 00004
2 53288  53.2118 199.5991 0001314  84.8028 275.3114 15.08840818    06
Epoch (UTC): 25 May 2026 10:26:19
Eccentricity: 0.0001314
inclination: 53.2118°
perigee height: 539 km
apogee height: 541 km
right ascension of ascending node: 199.5991°
argument of perigee: 84.8028°
revolutions per day: 15.08840818
mean anomaly at epoch: 275.3114°

The dashed part of the orbit path shows where the satellite is in the earth's shadow,  

DLR